Location: ShareBrained
(45.5589°N, 122.6491°W)
Time: 12:21:32
(UTC-08:00)

NOAA 19 - Pass Details

Date: 17 January 2020
Orbit: 840 x 862 km, 99.2° (Epoch: 24 February)

Event Time Altitude Azimuth Distance (km) Brightness Sun altitude
Rises 06:08:32 0° 15° (NNE) 3,412 8.4 -16.7°
Reaches altitude 10° 06:10:54 10° 15° (NNE) 2,471 7.7 -16.3°
Maximum altitude 06:16:24 87° 104° (ESE) 849 5.2 -15.4°
Drops below altitude 10° 06:21:51 10° 195° (SSW) 2,451 7.6 -14.5°
Sets 06:24:12 0° 196° (SSW) 3,382 8.3 -14.1°
